Terug naar catalogus

STARLINK-31127

ActiefCommunicatieVLEO
NORAD 58765·PAYLOAD·🇺🇸 United States

Gelanceerd Jan 14, 2024 vanaf Vandenberg Space Force Base

Loading…

Volgende Passages (komende 24 uur)

TLE

VersSource: CelesTrak SupGP

Epoch: Sep 15, 2026, 02:43 UTC

1 58765C 24011A   26258.11368056 -.00062467  00000+0 -18455-2 0  2581
2 58765  53.1580 213.0769 0001387  95.2104 223.2225 15.34422621    12

Volg STARLINK-31127 in realtime met AllMySat

Download on the App Store